Location: Quesnel
(52.9830°N, 122.4830°W)
Time: 07:45:23
(UTC-07:00)

ISS - All Passes

Search period start: 23 April 2014 00:00
Search period end: 03 May 2014 00:00
Orbit: 413 x 418 km, 51.7° (Epoch: 23 April)

Date Brightness Start Highest point End Pass type
(mag) Time Alt. Az. Time Alt. Az. Time Alt. Az.
23 Apr - 14:20:06 10° S 14:21:54 14° SE 14:23:42 10° ESE daylight
23 Apr - 15:54:49 10° SW 15:58:01 44° SSE 16:01:14 10° E daylight
23 Apr - 17:31:14 10° W 17:34:35 72° S 17:37:56 10° E daylight
23 Apr - 19:07:55 10° W 19:11:08 43° SSW 19:14:21 10° SE daylight
23 Apr - 20:45:28 10° WSW 20:47:15 14° SW 20:49:02 10° S daylight
24 Apr - 15:06:17 10° SW 15:09:20 34° SSE 15:12:25 10° E daylight
24 Apr - 16:42:29 10° WSW 16:45:49 69° S 16:49:10 10° E daylight
24 Apr - 18:19:07 10° W 18:22:25 54° SSW 18:25:42 10° ESE daylight
24 Apr - 19:56:12 10° W 19:58:41 19° SW 20:01:09 10° SSE daylight
25 Apr - 14:17:49 10° SSW 14:20:38 25° SSE 14:23:27 10° E daylight
25 Apr - 15:53:41 10° WSW 15:57:00 62° S 16:00:19 10° E daylight
25 Apr - 17:30:16 10° W 17:33:36 64° S 17:36:55 10° ESE daylight
25 Apr - 19:07:06 10° W 19:09:59 26° SSW 19:12:50 10° SSE daylight
26 Apr - 13:29:30 10° S 13:31:53 18° SE 13:34:16 10° E daylight
26 Apr - 15:04:51 10° WSW 15:08:06 52° SSE 15:11:23 10° E daylight
26 Apr - 16:41:21 10° W 16:44:41 70° S 16:48:01 10° E daylight
26 Apr - 18:18:04 10° W 18:21:10 35° SSW 18:24:15 10° SE daylight
27 Apr - 12:41:33 10° SSE 12:43:06 13° SE 12:44:40 10° ESE daylight
27 Apr - 14:16:00 10° SW 14:19:10 41° SSE 14:22:21 10° E daylight
27 Apr - 15:52:22 10° W 15:55:42 72° S 15:59:02 10° E daylight
27 Apr - 17:29:01 10° W 17:32:15 45° SSW 17:35:27 10° SE daylight
27 Apr - 19:06:25 10° WSW 19:08:22 15° SW 19:10:19 10° S daylight
28 Apr - 13:27:12 10° SW 13:30:12 32° SSE 13:33:13 10° E daylight
28 Apr - 15:03:18 10° WSW 15:06:38 68° S 15:09:58 10° E daylight
28 Apr - 16:39:55 10° W 16:43:13 56° SSW 16:46:30 10° ESE daylight
28 Apr - 18:16:54 10° W 18:19:29 21° SSW 18:22:03 10° SSE daylight
29 Apr - 12:38:28 10° SSW 12:41:11 23° SSE 12:43:55 10° E daylight
29 Apr - 14:14:13 10° WSW 14:17:30 60° SSE 14:20:48 10° E daylight
29 Apr - 15:50:46 10° W 15:54:05 65° S 15:57:24 10° ESE daylight
29 Apr - 17:27:33 10° W 17:30:28 28° SSW 17:33:23 10° SSE daylight
30 Apr - 11:49:56 10° S 11:52:09 17° SE 11:54:22 10° ESE daylight
30 Apr - 13:25:05 10° WSW 13:28:19 50° SSE 13:31:34 10° E daylight
30 Apr - 15:01:33 10° W 15:04:52 71° S 15:08:12 10° E daylight
30 Apr - 16:38:13 10° W 16:41:21 37° SSW 16:44:28 10° SE daylight
30 Apr - 18:16:23 10° WSW 18:17:20 11° SW 18:18:17 10° SSW daylight
01 May - 11:01:54 10° SSE 11:03:05 12° SE 11:04:16 10° ESE daylight
01 May - 12:35:58 10° SW 12:39:06 39° SSE 12:42:14 10° E daylight
01 May - 14:12:15 10° W 14:15:35 71° S 14:18:54 10° E daylight
01 May - 15:48:53 10° W 15:52:07 48° SSW 15:55:20 10° ESE daylight
01 May - 17:26:07 10° WSW 17:28:16 16° SW 17:30:24 10° S daylight
02 May - 11:46:53 10° SW 11:49:50 29° SSE 11:52:46 10° E daylight
02 May - 13:22:54 10° WSW 13:26:13 66° S 13:29:32 10° E daylight
02 May - 14:59:29 10° W 15:02:46 59° SSW 15:06:04 10° ESE daylight
02 May - 16:36:23 10° W 16:39:03 22° SSW 16:41:43 10° SSE daylight
